[[{"header":{"parameterUnit":"m.s-1","parameterCategory":1,"la1":30.2991,"la2":30.254,"lo1":-89.0895,"lo2":-89.0444,"dy":0.0017,"dx":0.0017,"nx":28,"ny":28,"refTime":"2024-05-06T09:00:00:Z","depth":0,"parameterNumber":2,"parameterNumberName":"U-component_of_WINDS"},"data":[0,0,0,0,0,0,0,0,0,0,0,0,0,0,0,0,0,0,0,0,0,0,0,0,0,0,0,0,0,0,0,0,0,0,0,0,0,0,0,0,0,0,0,0,0,0,0,0,0,0,0,0,0,0,0,0,0,0,-0.4766,-0.4766,0,-0.4794,-0.4794,-0.4794,-0.4808,-0.4808,-0.4808,-0.4808,-0.4839,-0.484,-0.4841,0,0,0,0,0,0,0,0,0,0,0,0,0,-0.4727,-0.4728,-0.4766,-0.4766,-0.4766,-0.4793,-0.4794,-0.4794,-0.4808,-0.4808,-0.4808,-0.4808,-0.4839,-0.484,-0.4841,0,0,0,0,0,0,0,0,0,0,0,0,0,-0.4749,-0.4728,-0.4766,-0.4776,-0.4778,-0.4793,-0.4794,-0.4794,-0.4808,-0.4808,-0.4808,-0.4808,-0.4838,-0.4839,-0.4841,-0.4849,0,0,-0.4845,-0.4845,0,0,0,0,0,0,0,0,-0.4747,-0.475,-0.4774,-0.4776,-0.4777,-0.4797,-0.4792,-0.4813,-0.4808,-0.4796,-0.4808,-0.4808,-0.4825,-0.4827,-0.4833,-0.485,-0.4851,-0.4845,-0.4845,-0.4846,-0.4846,0,0,0,0,0,0,0,-0.4746,-0.4749,-0.4777,-0.4775,-0.4776,-0.4781,-0.4784,-0.4796,-0.4811,-0.4797,-0.4799,-0.4802,-0.4826,-0.4832,-0.4834,-0.4852,-0.4845,-0.4846,-0.4846,-0.4847,-0.4879,-0.4879,0,0,0,0,0,0,-0.4742,-0.4747,-0.4776,-0.4778,-0.4762,-0.4782,-0.4785,-0.4791,-0.4811,-0.4813,-0.4802,-0.4802,-0.4829,-0.4832,-0.4835,-0.4846,-0.4846,-0.4847,-0.4848,-0.4879,-0.4879,-0.4879,0,0,0,0,0,0,-0.4741,-0.4745,-0.4775,-0.4763,-0.4767,-0.4782,-0.4789,-0.4791,-0.4797,-0.4814,-0.4817,-0.4804,-0.483,-0.4833,-0.4845,-0.4848,-0.4848,-0.4849,-0.4879,-0.4879,-0.4879,-0.4869,0,0,0,0,0,0,-0.474,-0.4744,-0.4746,-0.4763,-0.4768,-0.4784,-0.4789,-0.4792,-0.4799,-0.48,-0.4817,-0.482,-0.483,-0.4843,-0.4847,-0.4849,-0.485,-0.4879,-0.4879,-0.4879,-0.4869,-0.4869,-0.4868,0,0,0,0,0,-0.4739,-0.4743,-0.4746,-0.475,-0.4771,-0.4784,-0.4787,-0.4797,-0.4799,-0.4802,-0.4813,-0.4819,-0.4847,-0.4844,-0.4848,-0.4851,-0.4878,-0.4879,-0.4879,-0.4869,-0.4869,-0.4868,0,0,0,0,0,0,-0.4727,-0.4745,-0.4749,-0.4758,-0.4769,-0.4786,-0.479,-0.4796,-0.4807,-0.4808,-0.4822,-0.4825,-0.4837,-0.4845,-0.4842,-0.4861,-0.4863,-0.4864,-0.4855,-0.4854,-0.4854,-0.4852,-0.4851,0,0,0,0,0,-0.4725,-0.4733,-0.4749,-0.4756,-0.4761,-0.4774,-0.4781,-0.4788,-0.48,-0.4805,-0.4817,-0.4829,-0.4841,-0.4848,-0.486,-0.487,-0.4875,-0.4875,-0.4874,-0.4874,-0.4875,-0.4883,-0.4883,-0.488,-0.488,-0.488,0,0,-0.4722,-0.4733,-0.4737,-0.4754,-0.4763,-0.4772,-0.4778,-0.4788,-0.4795,-0.4807,-0.4819,-0.4828,-0.4843,-0.4855,-0.4861,-0.4863,-0.4877,-0.4874,-0.4874,-0.4875,-0.4883,-0.4883,-0.4884,-0.488,-0.488,-0.488,0,0,-0.4721,-0.4729,-0.4736,-0.4746,-0.476,-0.4769,-0.4771,-0.4786,-0.4793,-0.4805,-0.4815,-0.4824,-0.4844,-0.4854,-0.4862,-0.4867,-0.4874,-0.487,-0.4868,-0.4876,-0.4876,-0.4876,-0.4879,-0.488,-0.4871,-0.4871,-0.4871,0,-0.4715,-0.4728,-0.4739,-0.4748,-0.4756,-0.4767,-0.4775,-0.4783,-0.4801,-0.4806,-0.4808,-0.4833,-0.4844,-0.4859,-0.486,-0.4866,-0.4869,-0.4868,-0.4875,-0.4875,-0.4876,-0.4879,-0.488,-0.487,-0.487,-0.487,-0.4871,0,-0.4722,-0.4731,-0.4735,-0.4751,-0.4759,-0.4768,-0.4781,-0.4788,-0.4795,-0.4805,-0.4818,-0.4831,-0.4846,-0.4851,-0.4858,-0.4867,-0.4868,-0.4872,-0.4875,-0.4876,-0.4879,-0.488,-0.487,-0.487,-0.487,-0.487,0,0,-0.4713,-0.4735,-0.4737,-0.4745,-0.4762,-0.477,-0.4779,-0.4793,-0.48,-0.4812,-0.4821,-0.4838,-0.4842,-0.4851,-0.486,-0.4866,-0.4871,-0.487,-0.4871,-0.487,-0.4884,-0.4881,-0.4882,-0.4875,-0.4876,-0.4876,-0.4883,0,-0.4715,-0.4731,-0.4742,-0.4755,-0.4765,-0.4776,-0.4785,-0.4797,-0.4806,-0.4817,-0.4828,-0.484,-0.4844,-0.4849,-0.4856,-0.4869,-0.4874,-0.4868,-0.4886,-0.4886,-0.4882,-0.4883,-0.488,-0.4886,-0.4884,-0.4884,-0.4884,0,-0.4719,-0.473,-0.4744,-0.4761,-0.4765,-0.4773,-0.4787,-0.4797,-0.4811,-0.4818,-0.4829,-0.4838,-0.485,-0.4852,-0.487,-0.4866,-0.4874,-0.4881,-0.4882,-0.4884,-0.4885,-0.4887,-0.4888,-0.489,-0.4886,-0.4886,-0.4886,0,-0.4712,-0.4731,-0.4742,-0.4748,-0.4768,-0.4773,-0.4782,-0.4797,-0.4805,-0.4818,-0.4824,-0.4839,-0.4847,-0.4859,-0.4872,-0.4872,-0.4889,-0.4892,-0.4896,-0.4896,-0.49,-0.4899,-0.4903,-0.4904,-0.4904,-0.4904,-0.4904,0,-0.4713,-0.4722,-0.4739,-0.4746,-0.4756,-0.4769,-0.4779,-0.4789,-0.4802,-0.4812,-0.4823,-0.4832,-0.4849,-0.4861,-0.4872,-0.4886,-0.4889,-0.4896,-0.4899,-0.4896,-0.4895,-0.4901,-0.4901,-0.4904,-0.4904,-0.4904,-0.4904,0,-0.4708,-0.472,-0.4733,-0.475,-0.4755,-0.4762,-0.4778,-0.4786,-0.4796,-0.4809,-0.4813,-0.4829,-0.4844,-0.4859,-0.4879,-0.4886,-0.4901,-0.4904,-0.4895,-0.4897,-0.4901,-0.4901,-0.491,-0.4912,-0.491,-0.491,-0.491,0,-0.4707,-0.4714,-0.4733,-0.474,-0.4748,-0.4759,-0.4768,-0.4781,-0.479,-0.4808,-0.4814,-0.483,-0.4843,-0.4866,-0.4881,-0.4897,-0.4901,-0.4904,-0.4904,-0.4901,-0.4903,-0.4902,-0.4904,-0.4903,-0.4903,-0.4903,-0.4903,0,-0.4707,-0.4713,-0.4724,-0.4738,-0.4747,-0.4759,-0.4772,-0.4777,-0.4793,-0.4803,-0.4818,-0.4828,-0.4849,-0.4865,-0.4882,-0.4893,-0.4901,-0.4903,-0.4905,-0.4902,-0.4897,-0.49,-0.4895,-0.4903,-0.4903,-0.4903,-0.4903,-0.4903,-0.4704,-0.4711,-0.4725,-0.4738,-0.4749,-0.476,-0.4769,-0.4781,-0.4793,-0.481,-0.4818,-0.4833,-0.485,-0.4874,-0.4885,-0.4898,-0.49,-0.4903,-0.4904,-0.4905,-0.4904,-0.4894,-0.4902,-0.4902,-0.4902,-0.4902,-0.4902,0,-0.4705,-0.4714,-0.4726,-0.4743,-0.4753,-0.4759,-0.4774,-0.4783,-0.4796,-0.481,-0.4822,-0.4841,-0.4856,-0.4873,-0.489,-0.4898,-0.4902,-0.4902,-0.4902,-0.4905,-0.4901,-0.4898,-0.4898,-0.4898,-0.4898,-0.4898,-0.4898,-0.4898,-0.4706,-0.4718,-0.4726,-0.4744,-0.4755,-0.4769,-0.4777,-0.4788,-0.48,-0.4819,-0.4832,-0.4843,-0.4858,-0.4877,-0.4892,-0.4897,-0.4903,-0.4902,-0.4908,-0.4904,-0.4905,-0.4905,-0.4902,-0.4903,-0.4903,-0.491,-0.4911,-0.4911]},{"header":{"parameterUnit":"m.s-1","parameterCategory":1,"la1":30.2991,"la2":30.254,"lo1":-89.0895,"lo2":-89.0444,"dy":0.0017,"dx":0.0017,"nx":28,"ny":28,"refTime":"2024-05-06T09:00:00:Z","depth":0,"parameterNumber":3,"parameterNumberName":"V-component_of_WINDS"},"data":[0,0,0,0,0,0,0,0,0,0,0,0,0,0,0,0,0,0,0,0,0,0,0,0,0,0,0,0,0,0,0,0,0,0,0,0,0,0,0,0,0,0,0,0,0,0,0,0,0,0,0,0,0,0,0,0,0,0,5.648,5.6481,0,5.658,5.6581,5.6583,5.6539,5.6536,5.6534,5.6532,5.6628,5.6633,5.6638,0,0,0,0,0,0,0,0,0,0,0,0,0,5.6243,5.6247,5.6479,5.6481,5.6482,5.658,5.6581,5.6583,5.6539,5.6536,5.6533,5.653,5.6627,5.6632,5.6638,0,0,0,0,0,0,0,0,0,0,0,0,0,5.6344,5.6249,5.6479,5.6472,5.6473,5.658,5.6582,5.6583,5.654,5.6536,5.6532,5.6529,5.6625,5.6632,5.6639,5.6757,0,0,5.6661,5.6664,0,0,0,0,0,0,0,0,5.6339,5.6353,5.6472,5.6473,5.6474,5.6543,5.6533,5.6641,5.6541,5.6514,5.6531,5.6527,5.6603,5.6611,5.6638,5.6762,5.6766,5.6662,5.6666,5.6669,5.6672,0,0,0,0,0,0,0,5.6332,5.6349,5.6519,5.6474,5.6475,5.6462,5.6472,5.6554,5.6577,5.6516,5.6513,5.6526,5.6602,5.6631,5.664,5.6767,5.6662,5.6668,5.6673,5.6676,5.6992,5.6996,0,0,0,0,0,0,5.6326,5.6343,5.6516,5.6522,5.6396,5.6469,5.6481,5.6524,5.6576,5.6581,5.6529,5.6524,5.6621,5.6632,5.6643,5.6785,5.6669,5.6676,5.668,5.6988,5.6993,5.6997,0,0,0,0,0,0,5.6321,5.6341,5.6512,5.6432,5.6453,5.6477,5.6527,5.6528,5.6557,5.6586,5.659,5.6555,5.6618,5.6633,5.6729,5.6787,5.6679,5.6686,5.6983,5.6989,5.6995,5.7069,0,0,0,0,0,0,5.6314,5.634,5.6387,5.6433,5.6457,5.6599,5.653,5.6533,5.6571,5.6565,5.6611,5.6616,5.6616,5.6719,5.6737,5.6796,5.6692,5.6978,5.6986,5.6993,5.7061,5.7077,5.709,0,0,0,0,0,5.6306,5.6402,5.6389,5.641,5.6517,5.6602,5.6615,5.6616,5.6576,5.6622,5.664,5.6614,5.6778,5.6729,5.6749,5.6811,5.6974,5.6984,5.6992,5.7055,5.7074,5.709,0,0,0,0,0,0,5.636,5.6408,5.6394,5.6509,5.6552,5.6595,5.6653,5.6636,5.669,5.6681,5.6678,5.6689,5.6789,5.6809,5.6754,5.6927,5.687,5.6883,5.6911,5.6929,5.6943,5.6935,5.6698,0,0,0,0,0,5.6385,5.6453,5.6491,5.6588,5.6611,5.6629,5.6666,5.6663,5.6706,5.6723,5.6749,5.679,5.6851,5.6891,5.6948,5.7064,5.7073,5.7116,5.713,5.7142,5.7153,5.7215,5.7235,5.7027,5.7027,5.7027,0,0,5.6438,5.6473,5.6516,5.66,5.6633,5.6701,5.6644,5.6718,5.6768,5.6734,5.6827,5.6847,5.6893,5.6999,5.7047,5.7019,5.7213,5.7153,5.7163,5.7168,5.7227,5.7246,5.7264,5.7033,5.7032,5.7031,0,0,5.6569,5.6603,5.6688,5.6723,5.6774,5.6785,5.6805,5.6851,5.6863,5.6957,5.6933,5.6991,5.7096,5.7129,5.716,5.7304,5.7281,5.7322,5.7397,5.7457,5.7474,5.7488,5.7539,5.7557,5.7334,5.7334,5.7334,0,5.6628,5.6732,5.6733,5.6811,5.6848,5.6822,5.6907,5.6939,5.7006,5.7031,5.6999,5.7131,5.7159,5.7273,5.7308,5.7334,5.7356,5.7317,5.7472,5.7486,5.75,5.7548,5.7567,5.7339,5.7338,5.7338,5.7337,0,5.6802,5.6874,5.6936,5.7004,5.7047,5.7128,5.7139,5.7183,5.7177,5.719,5.7285,5.7319,5.7383,5.741,5.7403,5.7522,5.7503,5.7472,5.7414,5.7524,5.757,5.7588,5.7345,5.7344,5.7342,5.7341,0,0,5.697,5.7037,5.706,5.709,5.7145,5.7199,5.7278,5.7342,5.738,5.7426,5.7491,5.758,5.7552,5.7586,5.7583,5.7636,5.7747,5.7598,5.7599,5.7624,5.788,5.7904,5.7925,5.7733,5.7736,5.7739,5.7876,0,5.7105,5.7245,5.7249,5.7376,5.7442,5.7418,5.7486,5.7526,5.7541,5.7597,5.7612,5.7676,5.7633,5.7654,5.7706,5.7723,5.7799,5.7713,5.7791,5.7794,5.7781,5.7949,5.7974,5.8102,5.7894,5.7897,5.7899,0,5.7282,5.7336,5.7471,5.7516,5.7544,5.7606,5.7665,5.772,5.7763,5.777,5.7809,5.7798,5.7875,5.7815,5.7922,5.7864,5.7895,5.7909,5.7913,5.7921,5.7853,5.796,5.8143,5.8162,5.7927,5.7925,5.7923,0,5.7391,5.7497,5.7592,5.7618,5.7673,5.7717,5.7741,5.7782,5.782,5.7871,5.7895,5.7954,5.7986,5.803,5.8034,5.799,5.8141,5.8081,5.8147,5.8147,5.818,5.8178,5.837,5.8201,5.8201,5.82,5.82,0,5.7541,5.7625,5.7642,5.77,5.7792,5.7794,5.7884,5.7904,5.794,5.8,5.7982,5.8039,5.804,5.8097,5.81,5.8188,5.8202,5.8208,5.8208,5.821,5.8209,5.8231,5.8222,5.8205,5.8204,5.8203,5.8202,0,5.7679,5.7694,5.7795,5.7839,5.7852,5.7918,5.7954,5.8009,5.8022,5.8098,5.8116,5.8135,5.8202,5.821,5.8286,5.8288,5.8393,5.8384,5.8379,5.8378,5.8444,5.8437,5.8656,5.8685,5.8497,5.8499,5.85,0,5.7774,5.7838,5.7889,5.793,5.7957,5.8021,5.8061,5.8065,5.8106,5.8161,5.8208,5.8273,5.8325,5.8431,5.8451,5.8509,5.8501,5.8573,5.8509,5.8509,5.8501,5.8498,5.8504,5.8586,5.8588,5.8589,5.8591,0,5.7941,5.7946,5.8005,5.8067,5.8116,5.8164,5.8209,5.8242,5.8251,5.8299,5.8367,5.8408,5.8487,5.8551,5.8608,5.863,5.8612,5.8611,5.8629,5.8632,5.8627,5.863,5.8413,5.8606,5.8604,5.8603,5.8602,5.8602,5.806,5.8116,5.8161,5.8228,5.8263,5.8305,5.8359,5.8379,5.8437,5.8504,5.8501,5.8577,5.8617,5.8693,5.872,5.8777,5.8753,5.8779,5.8786,5.8793,5.8799,5.8618,5.8787,5.8787,5.8786,5.8786,5.8786,0,5.8227,5.8255,5.8316,5.8381,5.8433,5.8413,5.8462,5.8506,5.8574,5.8614,5.8666,5.8744,5.8806,5.8831,5.8891,5.8932,5.8925,5.8948,5.8945,5.895,5.8817,5.8796,5.8953,5.8953,5.8953,5.8953,5.8953,5.8953,5.8319,5.8413,5.8422,5.8532,5.8558,5.8634,5.8664,5.8703,5.8735,5.8824,5.8877,5.8893,5.8927,5.8989,5.9045,5.905,5.9073,5.9099,5.9101,5.8977,5.896,5.8944,5.8923,5.9104,5.9105,5.9229,5.923,5.9231]}]]